This is the latest recevied weather packets stored in our database for station/object DH8TOM-3. If no packets are shown the sender has not sent any weather packets the latest 10 day(s).
| Time | Temp. | Humidity | Pressure | Rain* | Wind** | Luminosity | Snow |
|---|---|---|---|---|---|---|---|
| 1777838969 | 21.67° C | 45% | 1010 hPa | 0 mm | - | - | - |
| 1777837765 | 22.22° C | 44% | 1010 hPa | 0 mm | - | - | - |
| 1777831745 | 23.33° C | 43% | 1009.4 hPa | 0 mm | - | - | - |
| 1777830240 | 24.44° C | 41% | 1009.2 hPa | 0 mm | - | - | - |
| 1777826327 | 25.56° C | 38% | 1009 hPa | 0 mm | - | - | - |
| 1777824822 | 25.56° C | 40% | 1009 hPa | 0 mm | - | - | - |
| 1777824521 | 25.56° C | 40% | 1009 hPa | 0 mm | - | - | - |
| 1777821210 | 25.56° C | 41% | 1009.6 hPa | 0 mm | - | - | - |
| 1777820909 | 25.56° C | 41% | 1009.6 hPa | 0 mm | - | - | - |
| 1777817598 | 25.56° C | 39% | 1010.3 hPa | 0 mm | - | - | - |
| 1777817297 | 25.56° C | 39% | 1010.3 hPa | 0 mm | - | - | - |
| 1777816996 | 25.56° C | 42% | 1010.5 hPa | 0 mm | - | - | - |
| 1777815491 | 25° C | 41% | 1010.7 hPa | 0 mm | - | - | - |
| 1777814889 | 25° C | 42% | 1010.9 hPa | 0 mm | - | - | - |
| 1777814298 | 25° C | 40% | 1011.2 hPa | 0 mm | - | - | - |
| 1777756516 | 18.89° C | 51% | 1014.7 hPa | 0 mm | - | - | - |
| 1777756194 | 18.89° C | 51% | 1014.7 hPa | 0 mm | - | - | - |
| 1777755592 | 18.89° C | 50% | 1014.7 hPa | 0 mm | - | - | - |
| 1777754979 | 18.89° C | 49% | 1014.7 hPa | 0 mm | - | - | - |
| 1777754678 | 19.44° C | 49% | 1014.8 hPa | 0 mm | - | - | - |
| 1777753775 | 19.44° C | 49% | 1014.8 hPa | 0 mm | - | - | - |
| 1777753473 | 19.44° C | 48% | 1014.8 hPa | 0 mm | - | - | - |
| 1777753173 | 19.44° C | 48% | 1014.8 hPa | 0 mm | - | - | - |
| 1777752874 | 19.44° C | 48% | 1014.9 hPa | 0 mm | - | - | - |
| 1777752571 | 19.44° C | 48% | 1014.9 hPa | 0 mm | - | - | - |
* Rain latest hour (hover to see other rain measurements)
** Current wind speed in m/s (hover to see current wind gust speed)